Weather in Arzamas

Russia / Nizhny Novgorod Oblast'     55°23′11″N   43°48′56″E
temp.,
°C
wind,
m/s
gust,
m/s
humid.,
%
clouds,
%
prec.,
mm/h
press.,
hPa
HPBL,
m
21 april, wed
wed2100:00+5ese81781100 1.1 1016959
03:00+3ese92192100 11.4 10131143
06:00+4se102088100 1.8 10111071
09:00+6se9178099 1.8 1011881
12:00+9sse91575100 0.0 10101066
15:00+7sse71587100 0.7 1011916
18:00+7sse71488100 0.2 1010780
21:00+5w61194100 1.8 1013562
22 april, thu
thu2200:00+5sw5986100 0.5 10151041
03:00+5ssw3988100 0.5 1017569
06:00+5sse379299 0.0 1017311
09:00+7ssw5982100 0.4 1018981
12:00+9sw6975100 0.3 10191229
15:00+10wsw576076 0.4 10201523
18:00+9ssw376973 0.0 1021344
21:00+6sse368436 0.0 102290
23 april, fri
fri2300:00+6sse397894 0.0 1021213
03:00+4sse398659 0.0 1021163
06:00+6sse4118284 0.0 1021247
09:00+12s486060 0.0 1021568
12:00+16ssw56465 0.0 10211750
15:00+15s454797 0.0 10201976
18:00+13se47594 0.0 1019307
21:00+9se387662 0.0 1019129
24 april, sat
sat2400:00+9ese3767100 0.0 1017121
03:00+8se388797 0.0 1015208
06:00+8se4108981 0.1 1014346
09:00+11se5107286 0.5 1012733
12:00+14sse695765 1.1 10101660
15:00+13sse596496 2.0 10081182
18:00+11s4976100 1.5 1006612
21:00+5sw6108898 2.1 1007715
25 april, sun
sun2500:00+5wsw61075100 0.1 10081054
03:00+3sw499322 0.2 1008495
06:00+3sw410892 0.0 1009462
09:00+7wsw69605 0.0 10091394
12:00+9sw6943100 0.0 10102396
15:00+10wsw694494 0.0 10102362
18:00+8wsw48525 0.0 10101216
21:00+4sw3776100 0.1 1012152